Location: Croydon
(51.3762°N, 0.0982°W)
Time: 09:16:17
(UTC+00:00)

Altair - Pass Details

Date: 18 November 2019
Orbit: 1502 x 1682 km, 47.2° (Epoch: 05 December)

Event Time Altitude Azimuth Distance (km) Brightness Sun altitude
Rises 04:24:18 0° 241° (WSW) 4,635 - -27.4°
Reaches altitude 10° 04:27:21 10° 237° (WSW) 3,650 - -27.0°
Exits shadow 04:32:01 33° 225° (SW) 2,300 8.0 -26.2°
Maximum altitude 04:36:16 59° 161° (SSE) 1,702 7.7 -25.6°
Drops below altitude 10° 04:45:19 10° 85° (E) 3,708 10.6 -24.2°
Sets 04:48:27 0° 82° (E) 4,712 11.4 -23.7°
